Time,TemperatureF,DewpointF,PressureIn,WindDirection,WindDirectionDegrees,WindSpeedMPH,WindSpeedGustMPH,Humidity,HourlyPrecipIn,Conditions,Clouds,dailyrainin,SoftwareType,DateUTC
2013-01-25 00:03:00,59.1,58.5,30.04,SSW,202,4.0,6.0,98,0.00,,,0.00,Weather View 32 v70,2013-01-25 06:03:00,
2013-01-25 00:08:00,59.1,58.5,30.04,SSW,202,3.0,6.0,98,0.00,,,0.00,Weather View 32 v70,2013-01-25 06:08:00,
2013-01-25 00:13:00,59.0,58.4,30.03,SSW,202,3.0,6.0,98,0.00,,,0.00,Weather View 32 v70,2013-01-25 06:13:00,
2013-01-25 00:18:00,58.9,58.3,30.04,SSW,202,2.0,6.0,98,0.00,,,0.00,Weather View 32 v70,2013-01-25 06:18:00,
2013-01-25 00:23:00,59.0,58.4,30.04,SW,225,1.0,6.0,98,0.00,,,0.00,Weather View 32 v70,2013-01-25 06:23:00,
2013-01-25 00:28:00,59.1,58.5,30.04,SW,225,4.0,6.0,98,0.00,,,0.00,Weather View 32 v70,2013-01-25 06:28:00,
2013-01-25 00:33:00,59.0,58.4,30.04,SW,225,2.0,6.0,98,0.00,,,0.00,Weather View 32 v70,2013-01-25 06:33:00,
2013-01-25 00:38:00,59.0,58.4,30.04,SSW,202,2.0,6.0,98,0.00,,,0.00,Weather View 32 v70,2013-01-25 06:38:00,
2013-01-25 00:43:00,58.9,58.3,30.04,SSW,202,2.0,6.0,98,0.00,,,0.00,Weather View 32 v70,2013-01-25 06:43:00,
2013-01-25 00:48:00,58.9,58.3,30.04,SSW,202,2.0,6.0,98,0.00,,,0.00,Weather View 32 v70,2013-01-25 06:48:00,
2013-01-25 00:53:00,58.9,58.3,30.03,SSW,202,4.0,6.0,98,0.00,,,0.00,Weather View 32 v70,2013-01-25 06:53:00,
2013-01-25 00:58:00,58.7,58.1,30.03,SSW,202,2.0,6.0,98,0.00,,,0.00,Weather View 32 v70,2013-01-25 06:58:00,
2013-01-25 01:03:00,58.6,58.0,30.03,SSW,202,4.0,6.0,98,0.00,,,0.00,Weather View 32 v70,2013-01-25 07:03:00,
2013-01-25 01:08:00,58.6,58.0,30.03,SSW,202,3.0,6.0,98,0.00,,,0.00,Weather View 32 v70,2013-01-25 07:08:00,
2013-01-25 01:13:00,58.4,57.8,30.03,SW,225,2.0,6.0,98,0.00,,,0.00,Weather View 32 v70,2013-01-25 07:13:00,
2013-01-25 01:18:00,58.4,57.8,30.03,SW,225,2.0,6.0,98,0.00,,,0.00,Weather View 32 v70,2013-01-25 07:18:00,
2013-01-25 01:23:00,58.4,57.8,30.03,SSW,202,1.0,6.0,98,0.00,,,0.00,Weather View 32 v70,2013-01-25 07:23:00,
2013-01-25 01:28:00,58.3,57.7,30.03,SSW,202,2.0,6.0,98,0.00,,,0.00,Weather View 32 v70,2013-01-25 07:28:00,
2013-01-25 01:33:00,58.3,57.7,30.03,SW,225,2.0,6.0,98,0.00,,,0.00,Weather View 32 v70,2013-01-25 07:33:00,
2013-01-25 01:38:00,58.3,57.7,30.03,WSW,247,2.0,6.0,98,0.00,,,0.00,Weather View 32 v70,2013-01-25 07:38:00,
2013-01-25 01:43:00,58.3,57.7,30.03,SW,225,2.0,6.0,98,0.00,,,0.00,Weather View 32 v70,2013-01-25 07:43:00,
2013-01-25 01:48:00,58.3,57.7,30.03,SW,225,1.0,6.0,98,0.00,,,0.00,Weather View 32 v70,2013-01-25 07:48:00,
2013-01-25 01:53:00,58.1,57.5,30.03,SW,225,2.0,6.0,98,0.00,,,0.00,Weather View 32 v70,2013-01-25 07:53:00,
2013-01-25 01:58:00,58.0,57.4,30.03,SW,225,1.0,6.0,98,0.00,,,0.00,Weather View 32 v70,2013-01-25 07:58:00,
2013-01-25 02:03:00,58.1,57.5,30.03,SSW,202,3.0,6.0,98,0.00,,,0.00,Weather View 32 v70,2013-01-25 08:03:00,
2013-01-25 02:08:00,58.2,57.6,30.03,SSW,202,3.0,6.0,98,0.00,,,0.00,Weather View 32 v70,2013-01-25 08:08:00,
2013-01-25 02:13:00,58.3,57.7,30.03,SW,225,2.0,5.0,98,0.00,,,0.00,Weather View 32 v70,2013-01-25 08:13:00,
2013-01-25 02:18:00,58.3,57.7,30.03,SW,225,2.0,5.0,98,0.00,,,0.00,Weather View 32 v70,2013-01-25 08:18:00,
2013-01-25 02:23:00,58.3,57.7,30.03,SW,225,2.0,4.0,98,0.00,,,0.00,Weather View 32 v70,2013-01-25 08:23:00,
2013-01-25 02:28:00,58.2,57.6,30.03,SW,225,2.0,4.0,98,0.00,,,0.00,Weather View 32 v70,2013-01-25 08:28:00,
2013-01-25 02:33:00,58.2,57.6,30.03,SW,225,3.0,4.0,98,0.00,,,0.00,Weather View 32 v70,2013-01-25 08:33:00,
2013-01-25 02:38:00,58.2,57.6,30.03,SW,225,3.0,4.0,98,0.00,,,0.00,Weather View 32 v70,2013-01-25 08:38:00,
2013-01-25 02:43:00,58.1,57.5,30.03,SW,225,2.0,4.0,98,0.00,,,0.00,Weather View 32 v70,2013-01-25 08:43:00,
2013-01-25 02:48:00,57.9,57.1,30.02,SSW,202,2.0,4.0,97,0.00,,,0.00,Weather View 32 v70,2013-01-25 08:48:00,
2013-01-25 02:53:00,57.8,57.0,30.02,SW,225,3.0,4.0,97,0.00,,,0.00,Weather View 32 v70,2013-01-25 08:53:00,
2013-01-25 02:58:00,57.9,57.1,30.02,SSW,202,2.0,4.0,97,0.00,,,0.00,Weather View 32 v70,2013-01-25 08:58:00,
2013-01-25 03:03:00,57.9,57.1,30.02,SW,225,2.0,4.0,97,0.00,,,0.00,Weather View 32 v70,2013-01-25 09:03:00,
2013-01-25 03:08:00,58.1,57.5,30.02,SW,225,3.0,4.0,98,0.00,,,0.00,Weather View 32 v70,2013-01-25 09:08:00,
2013-01-25 03:13:00,58.4,57.8,30.01,SW,225,2.0,6.0,98,0.00,,,0.00,Weather View 32 v70,2013-01-25 09:13:00,
2013-01-25 03:18:00,58.5,57.9,30.01,SW,225,2.0,6.0,98,0.00,,,0.00,Weather View 32 v70,2013-01-25 09:18:00,
2013-01-25 03:23:00,58.6,58.0,30.01,SSW,202,4.0,6.0,98,0.00,,,0.00,Weather View 32 v70,2013-01-25 09:23:00,
2013-01-25 03:28:00,58.7,58.1,30.01,SSW,202,4.0,7.0,98,0.00,,,0.00,Weather View 32 v70,2013-01-25 09:28:00,
2013-01-25 03:33:00,58.9,58.3,30.01,South,180,6.0,8.0,98,0.00,,,0.00,Weather View 32 v70,2013-01-25 09:33:00,
2013-01-25 03:38:00,58.9,58.3,30.01,SSW,202,3.0,8.0,98,0.00,,,0.00,Weather View 32 v70,2013-01-25 09:38:00,
2013-01-25 03:44:00,58.8,58.2,30.00,SSW,202,5.0,8.0,98,0.00,,,0.00,Weather View 32 v70,2013-01-25 09:44:00,
2013-01-25 03:49:00,58.7,58.1,30.00,SW,225,4.0,8.0,98,0.00,,,0.00,Weather View 32 v70,2013-01-25 09:49:00,
2013-01-25 03:54:00,58.5,57.9,30.00,SSW,202,5.0,8.0,98,0.00,,,0.00,Weather View 32 v70,2013-01-25 09:54:00,
2013-01-25 03:59:00,58.4,57.8,29.99,SSW,202,3.0,8.0,98,0.00,,,0.00,Weather View 32 v70,2013-01-25 09:59:00,
2013-01-25 04:04:00,58.6,58.0,30.00,SSW,202,4.0,8.0,98,0.00,,,0.00,Weather View 32 v70,2013-01-25 10:04:00,
2013-01-25 04:09:00,58.5,57.9,29.99,SSW,202,6.0,8.0,98,0.00,,,0.00,Weather View 32 v70,2013-01-25 10:09:00,
2013-01-25 04:14:00,58.6,58.0,29.99,SSW,202,6.0,8.0,98,0.00,,,0.00,Weather View 32 v70,2013-01-25 10:14:00,
2013-01-25 04:19:00,58.7,58.1,29.99,SW,225,5.0,8.0,98,0.00,,,0.00,Weather View 32 v70,2013-01-25 10:19:00,
2013-01-25 04:24:00,58.8,58.2,29.99,SW,225,6.0,8.0,98,0.00,,,0.00,Weather View 32 v70,2013-01-25 10:24:00,
2013-01-25 04:29:00,58.8,58.2,29.99,SW,225,6.0,8.0,98,0.00,,,0.00,Weather View 32 v70,2013-01-25 10:29:00,
2013-01-25 04:34:00,58.8,58.2,29.99,SW,225,4.0,8.0,98,0.00,,,0.00,Weather View 32 v70,2013-01-25 10:34:00,
2013-01-25 04:39:00,58.8,58.2,30.00,SW,225,5.0,8.0,98,0.00,,,0.00,Weather View 32 v70,2013-01-25 10:39:00,
2013-01-25 04:44:00,58.9,58.3,30.00,WSW,247,4.0,8.0,98,0.00,,,0.00,Weather View 32 v70,2013-01-25 10:44:00,
2013-01-25 04:49:00,59.1,58.5,30.00,WSW,247,2.0,8.0,98,0.00,,,0.00,Weather View 32 v70,2013-01-25 10:49:00,
2013-01-25 04:54:00,59.3,58.7,30.01,WSW,247,4.0,8.0,98,0.00,,,0.00,Weather View 32 v70,2013-01-25 10:54:00,
2013-01-25 04:59:00,59.6,59.0,30.00,WSW,247,4.0,8.0,98,0.00,,,0.00,Weather View 32 v70,2013-01-25 10:59:00,
2013-01-25 05:04:00,59.6,59.0,30.01,WNW,292,1.0,8.0,98,0.00,,,0.00,Weather View 32 v70,2013-01-25 11:04:00,
2013-01-25 05:09:00,59.7,59.1,30.01,WNW,292,3.0,8.0,98,0.00,,,0.00,Weather View 32 v70,2013-01-25 11:09:00,
2013-01-25 05:14:00,59.8,59.2,30.01,West,270,4.0,8.0,98,0.00,,,0.00,Weather View 32 v70,2013-01-25 11:14:00,
2013-01-25 05:19:00,59.7,59.1,30.01,SW,225,2.0,8.0,98,0.00,,,0.00,Weather View 32 v70,2013-01-25 11:19:00,
2013-01-25 05:24:00,59.7,59.1,30.01,WSW,247,1.0,8.0,98,0.00,,,0.00,Weather View 32 v70,2013-01-25 11:24:00,
2013-01-25 05:29:00,59.7,59.1,30.01,WSW,247,1.0,8.0,98,0.00,,,0.00,Weather View 32 v70,2013-01-25 11:29:00,
2013-01-25 05:34:00,59.7,59.1,30.01,SW,225,2.0,7.0,98,0.00,,,0.00,Weather View 32 v70,2013-01-25 11:34:00,
2013-01-25 05:39:00,59.8,59.2,30.01,SW,225,2.0,7.0,98,0.00,,,0.00,Weather View 32 v70,2013-01-25 11:39:00,
2013-01-25 05:44:00,59.9,59.3,30.01,SW,225,2.0,7.0,98,0.00,,,0.00,Weather View 32 v70,2013-01-25 11:44:00,
2013-01-25 05:49:00,59.8,59.2,30.01,SW,225,3.0,7.0,98,0.00,,,0.00,Weather View 32 v70,2013-01-25 11:49:00,
2013-01-25 05:54:00,59.8,59.2,30.01,SSW,202,1.0,7.0,98,0.00,,,0.00,Weather View 32 v70,2013-01-25 11:54:00,
2013-01-25 05:59:00,59.8,59.2,30.01,SW,225,5.0,6.0,98,0.00,,,0.00,Weather View 32 v70,2013-01-25 11:59:00,
2013-01-25 06:04:00,59.8,59.2,30.02,SW,225,1.0,6.0,98,0.00,,,0.00,Weather View 32 v70,2013-01-25 12:04:00,
2013-01-25 06:09:00,59.8,59.2,30.02,SSW,202,2.0,5.0,98,0.00,,,0.00,Weather View 32 v70,2013-01-25 12:09:00,
2013-01-25 06:14:00,59.8,59.2,30.02,SW,225,2.0,6.0,98,0.00,,,0.00,Weather View 32 v70,2013-01-25 12:14:00,
2013-01-25 06:19:00,59.9,59.3,30.02,SW,225,2.0,6.0,98,0.00,,,0.00,Weather View 32 v70,2013-01-25 12:19:00,
2013-01-25 06:24:00,59.8,59.2,30.02,SW,225,2.0,6.0,98,0.00,,,0.00,Weather View 32 v70,2013-01-25 12:24:00,
2013-01-25 06:29:00,59.7,59.1,30.02,SSW,202,2.0,6.0,98,0.00,,,0.00,Weather View 32 v70,2013-01-25 12:29:00,
2013-01-25 06:34:00,59.7,59.1,30.02,South,180,2.0,6.0,98,0.00,,,0.00,Weather View 32 v70,2013-01-25 12:34:00,
2013-01-25 06:39:00,59.6,59.0,30.02,South,180,2.0,6.0,98,0.00,,,0.00,Weather View 32 v70,2013-01-25 12:39:00,
2013-01-25 06:44:00,59.6,59.0,30.02,SSW,202,2.0,6.0,98,0.00,,,0.00,Weather View 32 v70,2013-01-25 12:44:00,
2013-01-25 06:49:00,59.5,58.9,30.02,SSW,202,0.0,6.0,98,0.00,,,0.00,Weather View 32 v70,2013-01-25 12:49:00,
2013-01-25 06:54:00,59.5,58.9,30.03,SSW,202,2.0,6.0,98,0.00,,,0.00,Weather View 32 v70,2013-01-25 12:54:00,
2013-01-25 06:59:00,59.4,58.8,30.03,SSW,202,2.0,6.0,98,0.00,,,0.00,Weather View 32 v70,2013-01-25 12:59:00,
2013-01-25 07:04:00,59.2,58.6,30.03,South,180,1.0,6.0,98,0.00,,,0.00,Weather View 32 v70,2013-01-25 13:04:00,
2013-01-25 07:09:00,59.1,58.5,30.03,South,180,0.0,6.0,98,0.00,,,0.00,Weather View 32 v70,2013-01-25 13:09:00,
2013-01-25 07:14:00,58.9,58.3,30.03,South,180,0.0,4.0,98,0.00,,,0.00,Weather View 32 v70,2013-01-25 13:14:00,
2013-01-25 07:19:00,58.9,58.3,30.03,South,180,2.0,4.0,98,0.00,,,0.00,Weather View 32 v70,2013-01-25 13:19:00,
2013-01-25 07:24:00,58.9,58.3,30.03,SSE,157,2.0,4.0,98,0.01,,,0.01,Weather View 32 v70,2013-01-25 13:24:00,
2013-01-25 07:29:00,58.8,58.2,30.03,SSE,157,2.0,4.0,98,0.01,,,0.01,Weather View 32 v70,2013-01-25 13:29:00,
2013-01-25 07:34:00,58.8,58.2,30.03,SSE,157,2.0,4.0,98,0.01,,,0.01,Weather View 32 v70,2013-01-25 13:34:00,
2013-01-25 07:39:00,58.8,58.2,30.03,South,180,2.0,4.0,98,0.01,,,0.01,Weather View 32 v70,2013-01-25 13:39:00,
2013-01-25 07:44:00,58.9,58.3,30.03,South,180,1.0,4.0,98,0.01,,,0.01,Weather View 32 v70,2013-01-25 13:44:00,
2013-01-25 07:49:00,58.9,58.3,30.03,SSW,202,2.0,4.0,98,0.01,,,0.01,Weather View 32 v70,2013-01-25 13:49:00,
2013-01-25 07:54:00,59.1,58.5,30.04,SSW,202,2.0,4.0,98,0.01,,,0.01,Weather View 32 v70,2013-01-25 13:54:00,
2013-01-25 07:59:00,59.3,58.7,30.04,SW,225,2.0,4.0,98,0.01,,,0.01,Weather View 32 v70,2013-01-25 13:59:00,
2013-01-25 08:04:00,59.4,58.8,30.04,SSW,202,2.0,4.0,98,0.01,,,0.01,Weather View 32 v70,2013-01-25 14:04:00,
2013-01-25 08:09:00,59.5,58.9,30.04,SSW,202,1.0,4.0,98,0.01,,,0.01,Weather View 32 v70,2013-01-25 14:09:00,
2013-01-25 08:14:00,59.7,59.1,30.04,SSW,202,1.0,4.0,98,0.01,,,0.01,Weather View 32 v70,2013-01-25 14:14:00,
2013-01-25 08:19:00,59.7,59.1,30.04,SSW,202,1.0,4.0,98,0.01,,,0.01,Weather View 32 v70,2013-01-25 14:19:00,
2013-01-25 08:24:00,59.8,59.2,30.04,SSW,202,2.0,4.0,98,0.00,,,0.01,Weather View 32 v70,2013-01-25 14:24:00,
2013-01-25 08:29:00,59.9,59.3,30.04,South,180,1.0,4.0,98,0.00,,,0.01,Weather View 32 v70,2013-01-25 14:29:00,
2013-01-25 08:34:00,59.9,59.3,30.05,South,180,1.0,4.0,98,0.00,,,0.01,Weather View 32 v70,2013-01-25 14:34:00,
2013-01-25 08:39:00,60.2,59.6,30.05,South,180,3.0,4.0,98,0.00,,,0.01,Weather View 32 v70,2013-01-25 14:39:00,
2013-01-25 08:44:00,60.4,59.8,30.05,SSW,202,2.0,4.0,98,0.00,,,0.01,Weather View 32 v70,2013-01-25 14:44:00,
2013-01-25 08:49:00,60.5,59.9,30.05,SSW,202,2.0,4.0,98,0.00,,,0.01,Weather View 32 v70,2013-01-25 14:49:00,
2013-01-25 08:54:00,60.7,60.1,30.05,SW,225,2.0,5.0,98,0.00,,,0.01,Weather View 32 v70,2013-01-25 14:54:00,
2013-01-25 08:59:00,60.8,60.2,30.05,SW,225,2.0,5.0,98,0.00,,,0.01,Weather View 32 v70,2013-01-25 14:59:00,
2013-01-25 09:04:00,61.0,60.4,30.05,SW,225,2.0,5.0,98,0.00,,,0.01,Weather View 32 v70,2013-01-25 15:04:00,
2013-01-25 09:09:00,61.3,60.7,30.06,SW,225,1.0,5.0,98,0.00,,,0.01,Weather View 32 v70,2013-01-25 15:09:00,
2013-01-25 09:14:00,61.5,60.9,30.06,WSW,247,3.0,5.0,98,0.00,,,0.01,Weather View 32 v70,2013-01-25 15:14:00,
2013-01-25 09:19:00,61.7,61.1,30.06,SW,225,3.0,6.0,98,0.00,,,0.01,Weather View 32 v70,2013-01-25 15:19:00,
2013-01-25 09:24:00,61.9,61.3,30.06,SW,225,4.0,6.0,98,0.00,,,0.01,Weather View 32 v70,2013-01-25 15:24:00,
2013-01-25 09:29:00,62.2,61.6,30.06,SSW,202,6.0,6.0,98,0.00,,,0.01,Weather View 32 v70,2013-01-25 15:29:00,
2013-01-25 09:34:00,62.4,61.8,30.06,SW,225,3.0,7.0,98,0.00,,,0.01,Weather View 32 v70,2013-01-25 15:34:00,
2013-01-25 09:39:00,62.4,61.8,30.06,SW,225,5.0,8.0,98,0.00,,,0.01,Weather View 32 v70,2013-01-25 15:39:00,
2013-01-25 09:44:00,62.8,62.2,30.07,SW,225,6.0,8.0,98,0.00,,,0.01,Weather View 32 v70,2013-01-25 15:44:00,
2013-01-25 09:50:00,62.9,62.3,30.07,SW,225,6.0,11.0,98,-0.01,,,0.01,Weather View 32 v70,2013-01-25 15:50:00,
2013-01-25 09:55:00,62.8,62.2,30.07,SW,225,2.0,11.0,98,0.00,,,0.01,Weather View 32 v70,2013-01-25 15:55:00,
2013-01-25 10:00:00,63.2,62.6,30.07,SSW,202,2.0,11.0,98,0.00,,,0.01,Weather View 32 v70,2013-01-25 16:00:00,
2013-01-25 10:05:00,63.5,62.9,30.07,SW,225,4.0,11.0,98,0.00,,,0.01,Weather View 32 v70,2013-01-25 16:05:00,
2013-01-25 10:10:00,63.7,63.1,30.07,WSW,247,6.0,11.0,98,0.00,,,0.01,Weather View 32 v70,2013-01-25 16:10:00,
2013-01-25 10:15:00,64.0,63.4,30.07,SW,225,6.0,11.0,98,0.00,,,0.01,Weather View 32 v70,2013-01-25 16:15:00,
2013-01-25 10:20:00,64.3,63.7,30.07,WSW,247,4.0,11.0,98,0.00,,,0.01,Weather View 32 v70,2013-01-25 16:20:00,
2013-01-25 10:25:00,64.8,64.2,30.07,SW,225,9.0,11.0,98,0.00,,,0.01,Weather View 32 v70,2013-01-25 16:25:00,
2013-01-25 10:30:00,65.2,64.6,30.07,SW,225,3.0,11.0,98,0.00,,,0.01,Weather View 32 v70,2013-01-25 16:30:00,
2013-01-25 10:35:00,65.4,64.8,30.07,SW,225,3.0,12.0,98,0.00,,,0.01,Weather View 32 v70,2013-01-25 16:35:00,
2013-01-25 10:40:00,65.6,65.0,30.07,SW,225,8.0,12.0,98,0.00,,,0.01,Weather View 32 v70,2013-01-25 16:40:00,
2013-01-25 10:45:00,65.9,65.3,30.07,SSW,202,7.0,12.0,98,0.00,,,0.01,Weather View 32 v70,2013-01-25 16:45:00,
2013-01-25 10:50:00,66.8,66.5,30.07,West,270,4.0,12.0,99,0.00,,,0.01,Weather View 32 v70,2013-01-25 16:50:00,
2013-01-25 10:55:00,67.3,66.4,30.07,SW,225,6.0,12.0,97,0.00,,,0.01,Weather View 32 v70,2013-01-25 16:55:00,
2013-01-25 11:00:00,67.6,65.8,30.07,WNW,292,2.0,12.0,94,0.00,,,0.01,Weather View 32 v70,2013-01-25 17:00:00,
2013-01-25 11:05:00,67.8,65.1,30.07,WSW,247,8.0,17.0,91,0.00,,,0.01,Weather View 32 v70,2013-01-25 17:05:00,
2013-01-25 11:10:00,68.3,64.3,30.06,SW,225,14.0,17.0,87,0.00,,,0.01,Weather View 32 v70,2013-01-25 17:10:00,
2013-01-25 11:15:00,69.1,64.0,30.06,WSW,247,9.0,17.0,84,0.00,,,0.01,Weather View 32 v70,2013-01-25 17:15:00,
2013-01-25 11:20:00,70.1,63.6,30.06,WSW,247,11.0,17.0,80,0.00,,,0.01,Weather View 32 v70,2013-01-25 17:20:00,
2013-01-25 11:25:00,69.8,63.0,30.06,SW,225,9.0,18.0,79,0.00,,,0.01,Weather View 32 v70,2013-01-25 17:25:00,
2013-01-25 11:30:00,69.7,62.5,30.06,SSW,202,7.0,18.0,78,0.00,,,0.01,Weather View 32 v70,2013-01-25 17:30:00,
2013-01-25 11:35:00,69.5,62.3,30.06,WSW,247,4.0,18.0,78,0.00,,,0.01,Weather View 32 v70,2013-01-25 17:35:00,
2013-01-25 11:40:00,70.0,62.8,30.06,WNW,292,4.0,18.0,78,0.00,,,0.01,Weather View 32 v70,2013-01-25 17:40:00,
2013-01-25 11:45:00,71.1,62.4,30.06,West,270,12.0,18.0,74,0.00,,,0.01,Weather View 32 v70,2013-01-25 17:45:00,
2013-01-25 11:50:00,71.6,62.1,30.05,WSW,247,7.0,18.0,72,0.00,,,0.01,Weather View 32 v70,2013-01-25 17:50:00,
2013-01-25 11:55:00,71.9,62.0,30.05,WSW,247,14.0,22.0,71,0.00,,,0.01,Weather View 32 v70,2013-01-25 17:55:00,
2013-01-25 12:00:00,72.9,61.3,30.05,WSW,247,6.0,22.0,67,0.00,,,0.01,Weather View 32 v70,2013-01-25 18:00:00,
2013-01-25 12:05:00,72.6,61.4,30.04,SW,225,6.0,22.0,68,0.00,,,0.01,Weather View 32 v70,2013-01-25 18:05:00,
2013-01-25 12:10:00,72.4,60.4,30.04,WSW,247,6.0,22.0,66,0.00,,,0.01,Weather View 32 v70,2013-01-25 18:10:00,
2013-01-25 12:15:00,71.9,59.9,30.04,SW,225,10.0,22.0,66,0.00,,,0.01,Weather View 32 v70,2013-01-25 18:15:00,
2013-01-25 12:20:00,72.0,58.2,30.04,SW,225,11.0,22.0,62,0.00,,,0.01,Weather View 32 v70,2013-01-25 18:20:00,
2013-01-25 12:25:00,71.9,58.6,30.04,SW,225,15.0,22.0,63,0.00,,,0.01,Weather View 32 v70,2013-01-25 18:25:00,
2013-01-25 12:30:00,71.9,58.6,30.03,WSW,247,12.0,22.0,63,0.00,,,0.01,Weather View 32 v70,2013-01-25 18:30:00,
2013-01-25 12:35:00,72.9,58.2,30.03,SW,225,12.0,22.0,60,0.00,,,0.01,Weather View 32 v70,2013-01-25 18:35:00,
2013-01-25 12:40:00,72.5,58.7,30.03,WSW,247,14.0,22.0,62,0.00,,,0.01,Weather View 32 v70,2013-01-25 18:40:00,
2013-01-25 12:45:00,72.4,58.6,30.02,NNW,337,6.0,22.0,62,0.00,,,0.01,Weather View 32 v70,2013-01-25 18:45:00,
2013-01-25 12:50:00,72.5,58.7,30.02,SW,225,14.0,22.0,62,0.00,,,0.01,Weather View 32 v70,2013-01-25 18:50:00,
2013-01-25 12:55:00,72.8,58.5,30.02,West,270,7.0,22.0,61,0.00,,,0.01,Weather View 32 v70,2013-01-25 18:55:00,
2013-01-25 13:00:00,73.2,58.4,30.01,West,270,12.0,22.0,60,0.00,,,0.01,Weather View 32 v70,2013-01-25 19:00:00,
2013-01-25 13:05:00,73.1,59.3,30.02,West,270,9.0,22.0,62,0.00,,,0.01,Weather View 32 v70,2013-01-25 19:05:00,
2013-01-25 13:10:00,73.2,60.2,30.01,WSW,247,7.0,22.0,64,0.00,,,0.01,Weather View 32 v70,2013-01-25 19:10:00,
2013-01-25 13:15:00,72.9,60.0,30.01,WSW,247,13.0,22.0,64,0.00,,,0.01,Weather View 32 v70,2013-01-25 19:15:00,
2013-01-25 13:20:00,73.1,60.2,30.01,WSW,247,10.0,22.0,64,0.00,,,0.01,Weather View 32 v70,2013-01-25 19:20:00,
2013-01-25 13:25:00,73.6,59.7,30.01,West,270,14.0,22.0,62,0.00,,,0.01,Weather View 32 v70,2013-01-25 19:25:00,
2013-01-25 13:30:00,73.5,60.1,30.01,West,270,3.0,22.0,63,0.00,,,0.01,Weather View 32 v70,2013-01-25 19:30:00,
2013-01-25 13:35:00,73.7,59.8,30.01,WSW,247,14.0,22.0,62,0.00,,,0.01,Weather View 32 v70,2013-01-25 19:35:00,
2013-01-25 13:40:00,73.6,60.2,30.01,SW,225,17.0,21.0,63,0.00,,,0.01,Weather View 32 v70,2013-01-25 19:40:00,
2013-01-25 13:45:00,73.7,59.8,30.01,WSW,247,6.0,21.0,62,0.00,,,0.01,Weather View 32 v70,2013-01-25 19:45:00,
2013-01-25 13:50:00,73.9,59.6,30.01,SW,225,7.0,21.0,61,0.00,,,0.01,Weather View 32 v70,2013-01-25 19:50:00,
2013-01-25 13:55:00,74.4,60.0,30.01,WNW,292,7.0,19.0,61,0.00,,,0.01,Weather View 32 v70,2013-01-25 19:55:00,
2013-01-25 14:00:00,74.7,59.8,30.00,South,180,4.0,18.0,60,0.00,,,0.01,Weather View 32 v70,2013-01-25 20:00:00,
2013-01-25 14:05:00,73.9,60.0,30.00,WSW,247,2.0,18.0,62,0.00,,,0.01,Weather View 32 v70,2013-01-25 20:05:00,
2013-01-25 14:10:00,73.7,59.8,30.01,SW,225,9.0,18.0,62,0.00,,,0.01,Weather View 32 v70,2013-01-25 20:10:00,
2013-01-25 14:15:00,73.6,60.2,30.00,SW,225,9.0,18.0,63,0.00,,,0.01,Weather View 32 v70,2013-01-25 20:15:00,
2013-01-25 14:20:00,74.8,59.9,30.00,WSW,247,9.0,18.0,60,0.00,,,0.01,Weather View 32 v70,2013-01-25 20:20:00,
2013-01-25 14:25:00,74.4,60.5,29.99,SW,225,9.0,18.0,62,0.00,,,0.01,Weather View 32 v70,2013-01-25 20:25:00,
2013-01-25 14:30:00,74.5,61.0,29.99,SW,225,10.0,18.0,63,0.00,,,0.01,Weather View 32 v70,2013-01-25 20:30:00,
2013-01-25 14:35:00,74.5,61.0,29.99,WNW,292,12.0,18.0,63,0.00,,,0.01,Weather View 32 v70,2013-01-25 20:35:00,
2013-01-25 14:41:00,74.3,60.8,29.99,West,270,9.0,18.0,63,0.00,,,0.01,Weather View 32 v70,2013-01-25 20:41:00,
2013-01-25 14:46:00,74.5,61.0,29.99,West,270,2.0,17.0,63,0.00,,,0.01,Weather View 32 v70,2013-01-25 20:46:00,
2013-01-25 14:51:00,74.7,60.8,29.99,SW,225,12.0,17.0,62,0.00,,,0.01,Weather View 32 v70,2013-01-25 20:51:00,
2013-01-25 14:56:00,74.5,61.0,29.98,SW,225,7.0,17.0,63,0.00,,,0.01,Weather View 32 v70,2013-01-25 20:56:00,
2013-01-25 15:01:00,74.9,61.9,29.98,SW,225,6.0,17.0,64,0.00,,,0.01,Weather View 32 v70,2013-01-25 21:01:00,
2013-01-25 15:06:00,74.5,61.5,29.98,SSW,202,6.0,17.0,64,0.00,,,0.01,Weather View 32 v70,2013-01-25 21:06:00,
2013-01-25 15:11:00,74.5,61.5,29.98,WSW,247,9.0,17.0,64,0.00,,,0.01,Weather View 32 v70,2013-01-25 21:11:00,
2013-01-25 15:16:00,74.8,62.2,29.98,SW,225,7.0,17.0,65,0.00,,,0.01,Weather View 32 v70,2013-01-25 21:16:00,
2013-01-25 15:21:00,74.9,61.9,29.97,SW,225,11.0,17.0,64,0.00,,,0.01,Weather View 32 v70,2013-01-25 21:21:00,
2013-01-25 15:26:00,75.2,62.1,29.97,WSW,247,7.0,16.0,64,0.00,,,0.01,Weather View 32 v70,2013-01-25 21:26:00,
2013-01-25 15:31:00,74.8,62.6,29.98,SW,225,7.0,16.0,66,0.00,,,0.01,Weather View 32 v70,2013-01-25 21:31:00,
2013-01-25 15:36:00,75.0,63.3,29.97,SW,225,4.0,16.0,67,0.00,,,0.01,Weather View 32 v70,2013-01-25 21:36:00,
2013-01-25 15:41:00,74.9,62.7,29.97,WSW,247,4.0,16.0,66,0.00,,,0.01,Weather View 32 v70,2013-01-25 21:41:00,
2013-01-25 15:46:00,74.8,63.1,29.97,SW,225,10.0,17.0,67,0.00,,,0.01,Weather View 32 v70,2013-01-25 21:46:00,
2013-01-25 15:51:00,74.8,63.1,29.97,SW,225,5.0,17.0,67,0.00,,,0.01,Weather View 32 v70,2013-01-25 21:51:00,
2013-01-25 15:56:00,74.8,63.5,29.97,SSW,202,17.0,17.0,68,0.00,,,0.01,Weather View 32 v70,2013-01-25 21:56:00,
2013-01-25 16:01:00,74.9,63.2,29.97,WSW,247,14.0,17.0,67,0.00,,,0.01,Weather View 32 v70,2013-01-25 22:01:00,
2013-01-25 16:06:00,73.7,62.4,29.97,WSW,247,9.0,17.0,68,0.00,,,0.01,Weather View 32 v70,2013-01-25 22:06:00,
2013-01-25 16:11:00,74.3,63.0,29.97,SSW,202,14.0,17.0,68,0.00,,,0.01,Weather View 32 v70,2013-01-25 22:11:00,
2013-01-25 16:16:00,74.4,62.3,29.97,SW,225,7.0,17.0,66,0.00,,,0.01,Weather View 32 v70,2013-01-25 22:16:00,
2013-01-25 16:21:00,74.5,62.8,29.97,SW,225,11.0,17.0,67,0.00,,,0.01,Weather View 32 v70,2013-01-25 22:21:00,
2013-01-25 16:26:00,74.3,62.6,29.97,SW,225,11.0,17.0,67,0.00,,,0.01,Weather View 32 v70,2013-01-25 22:26:00,
2013-01-25 16:31:00,74.1,62.8,29.97,SSW,202,7.0,17.0,68,0.00,,,0.01,Weather View 32 v70,2013-01-25 22:31:00,
2013-01-25 16:36:00,73.7,62.4,29.97,SW,225,10.0,17.0,68,0.00,,,0.01,Weather View 32 v70,2013-01-25 22:36:00,
2013-01-25 16:41:00,73.9,62.6,29.97,SSW,202,10.0,17.0,68,0.00,,,0.01,Weather View 32 v70,2013-01-25 22:41:00,
2013-01-25 16:46:00,73.6,62.3,29.97,South,180,7.0,17.0,68,0.00,,,0.01,Weather View 32 v70,2013-01-25 22:46:00,
2013-01-25 16:51:00,73.4,62.6,29.97,SW,225,14.0,17.0,69,0.00,,,0.01,Weather View 32 v70,2013-01-25 22:51:00,
2013-01-25 16:56:00,72.9,62.9,29.97,SW,225,10.0,20.0,71,0.00,,,0.01,Weather View 32 v70,2013-01-25 22:56:00,
2013-01-25 17:01:00,72.9,62.5,29.97,SW,225,4.0,20.0,70,0.00,,,0.01,Weather View 32 v70,2013-01-25 23:01:00,
2013-01-25 17:06:00,72.7,63.1,29.97,SSW,202,11.0,20.0,72,0.00,,,0.01,Weather View 32 v70,2013-01-25 23:06:00,
2013-01-25 17:11:00,72.3,62.7,29.97,SW,225,7.0,20.0,72,0.00,,,0.01,Weather View 32 v70,2013-01-25 23:11:00,
2013-01-25 17:16:00,72.0,62.8,29.97,SSW,202,12.0,20.0,73,0.00,,,0.01,Weather View 32 v70,2013-01-25 23:16:00,
2013-01-25 17:21:00,71.5,63.1,29.97,SSW,202,9.0,20.0,75,0.00,,,0.01,Weather View 32 v70,2013-01-25 23:21:00,
2013-01-25 17:26:00,71.1,63.1,29.97,South,180,11.0,20.0,76,0.00,,,0.01,Weather View 32 v70,2013-01-25 23:26:00,
2013-01-25 17:31:00,70.6,63.0,29.97,SW,225,12.0,20.0,77,0.00,,,0.01,Weather View 32 v70,2013-01-25 23:31:00,
2013-01-25 17:37:00,70.1,63.3,29.97,SW,225,7.0,20.0,79,0.00,,,0.01,Weather View 32 v70,2013-01-25 23:37:00,
2013-01-25 17:42:00,69.7,62.9,29.97,SW,225,9.0,20.0,79,0.00,,,0.01,Weather View 32 v70,2013-01-25 23:42:00,
2013-01-25 17:47:00,69.3,63.2,29.97,SW,225,6.0,20.0,81,0.00,,,0.01,Weather View 32 v70,2013-01-25 23:47:00,
2013-01-25 17:52:00,68.9,62.8,29.98,SSW,202,4.0,20.0,81,0.00,,,0.01,Weather View 32 v70,2013-01-25 23:52:00,
2013-01-25 17:57:00,68.6,62.9,29.98,SSW,202,9.0,16.0,82,0.00,,,0.01,Weather View 32 v70,2013-01-25 23:57:00,
2013-01-25 18:02:00,68.4,63.0,29.98,SSW,202,7.0,16.0,83,0.00,,,0.01,Weather View 32 v70,2013-01-26 00:02:00,
2013-01-25 18:07:00,68.1,62.7,29.98,SW,225,7.0,16.0,83,0.00,,,0.01,Weather View 32 v70,2013-01-26 00:07:00,
2013-01-25 18:12:00,67.9,62.9,29.98,SW,225,8.0,16.0,84,0.00,,,0.01,Weather View 32 v70,2013-01-26 00:12:00,
2013-01-25 18:17:00,67.6,62.6,29.98,SW,225,4.0,16.0,84,0.00,,,0.01,Weather View 32 v70,2013-01-26 00:17:00,
2013-01-25 18:22:00,67.4,62.4,29.98,SW,225,5.0,16.0,84,0.00,,,0.01,Weather View 32 v70,2013-01-26 00:22:00,
2013-01-25 18:27:00,67.2,62.5,29.98,SW,225,6.0,16.0,85,0.00,,,0.01,Weather View 32 v70,2013-01-26 00:27:00,
2013-01-25 18:32:00,66.9,62.2,29.98,SW,225,5.0,16.0,85,0.00,,,0.01,Weather View 32 v70,2013-01-26 00:32:00,
2013-01-25 18:37:00,66.7,62.4,29.98,SSW,202,5.0,16.0,86,0.00,,,0.01,Weather View 32 v70,2013-01-26 00:37:00,
2013-01-25 18:42:00,66.6,62.3,29.98,SSW,202,5.0,12.0,86,0.00,,,0.01,Weather View 32 v70,2013-01-26 00:42:00,
2013-01-25 18:47:00,66.4,62.4,29.98,SW,225,4.0,12.0,87,0.00,,,0.01,Weather View 32 v70,2013-01-26 00:47:00,
2013-01-25 18:52:00,66.3,62.6,29.98,SSW,202,4.0,11.0,88,0.00,,,0.01,Weather View 32 v70,2013-01-26 00:52:00,
2013-01-25 18:57:00,66.0,62.3,29.98,SW,225,4.0,11.0,88,0.00,,,0.01,Weather View 32 v70,2013-01-26 00:57:00,
2013-01-25 19:02:00,65.9,62.2,29.98,SSW,202,6.0,11.0,88,0.00,,,0.01,Weather View 32 v70,2013-01-26 01:02:00,
2013-01-25 19:07:00,65.7,62.4,29.98,SW,225,7.0,11.0,89,0.00,,,0.01,Weather View 32 v70,2013-01-26 01:07:00,
2013-01-25 19:12:00,65.5,62.5,29.98,SW,225,6.0,11.0,90,0.00,,,0.01,Weather View 32 v70,2013-01-26 01:12:00,
2013-01-25 19:17:00,65.3,62.3,29.98,SSW,202,5.0,11.0,90,0.00,,,0.01,Weather View 32 v70,2013-01-26 01:17:00,
2013-01-25 19:22:00,65.1,62.4,29.98,SW,225,5.0,11.0,91,0.00,,,0.01,Weather View 32 v70,2013-01-26 01:22:00,
2013-01-25 19:27:00,64.9,62.2,29.98,SW,225,4.0,11.0,91,0.00,,,0.01,Weather View 32 v70,2013-01-26 01:27:00,
2013-01-25 19:32:00,64.8,62.4,29.98,SSW,202,5.0,11.0,92,0.00,,,0.01,Weather View 32 v70,2013-01-26 01:32:00,
2013-01-25 19:37:00,64.6,62.2,29.98,SSW,202,7.0,11.0,92,0.00,,,0.01,Weather View 32 v70,2013-01-26 01:37:00,
2013-01-25 19:42:00,64.5,62.4,29.99,SSW,202,4.0,11.0,93,0.00,,,0.01,Weather View 32 v70,2013-01-26 01:42:00,
2013-01-25 19:47:00,64.3,62.2,29.99,SSW,202,6.0,11.0,93,0.00,,,0.01,Weather View 32 v70,2013-01-26 01:47:00,
2013-01-25 19:52:00,64.2,62.4,29.99,SW,225,7.0,11.0,94,0.00,,,0.01,Weather View 32 v70,2013-01-26 01:52:00,
2013-01-25 19:57:00,63.9,62.1,29.99,SSW,202,4.0,10.0,94,0.00,,,0.01,Weather View 32 v70,2013-01-26 01:57:00,
2013-01-25 20:02:00,63.9,62.1,29.99,SSW,202,3.0,10.0,94,0.00,,,0.01,Weather View 32 v70,2013-01-26 02:02:00,
2013-01-25 20:08:00,63.7,62.2,29.99,SSW,202,2.0,10.0,95,0.00,,,0.01,Weather View 32 v70,2013-01-26 02:08:00,
2013-01-25 20:13:00,63.9,62.1,29.99,SW,225,2.0,9.0,94,0.00,,,0.01,Weather View 32 v70,2013-01-26 02:13:00,
2013-01-25 20:18:00,63.9,62.4,29.99,SW,225,4.0,9.0,95,0.00,,,0.01,Weather View 32 v70,2013-01-26 02:18:00,
2013-01-25 20:23:00,63.7,62.2,29.99,SSW,202,4.0,9.0,95,0.00,,,0.01,Weather View 32 v70,2013-01-26 02:23:00,
2013-01-25 20:28:00,63.7,62.2,29.99,SSW,202,2.0,9.0,95,0.00,,,0.01,Weather View 32 v70,2013-01-26 02:28:00,
2013-01-25 20:33:00,63.6,61.8,29.99,SW,225,2.0,9.0,94,0.00,,,0.01,Weather View 32 v70,2013-01-26 02:33:00,
2013-01-25 20:38:00,63.5,61.7,29.99,SSW,202,3.0,9.0,94,0.00,,,0.01,Weather View 32 v70,2013-01-26 02:38:00,
2013-01-25 20:43:00,63.3,61.5,29.99,SSW,202,3.0,7.0,94,0.00,,,0.01,Weather View 32 v70,2013-01-26 02:43:00,
2013-01-25 20:48:00,63.3,61.8,29.99,SSW,202,3.0,7.0,95,0.00,,,0.01,Weather View 32 v70,2013-01-26 02:48:00,
2013-01-25 20:53:00,63.2,62.0,29.99,SW,225,3.0,7.0,96,0.00,,,0.01,Weather View 32 v70,2013-01-26 02:53:00,
2013-01-25 20:58:00,62.9,61.4,29.99,SSW,202,2.0,7.0,95,0.00,,,0.01,Weather View 32 v70,2013-01-26 02:58:00,
2013-01-25 21:03:00,62.8,61.3,30.00,SSW,202,2.0,7.0,95,0.00,,,0.01,Weather View 32 v70,2013-01-26 03:03:00,
2013-01-25 21:08:00,62.6,61.1,30.00,SSW,202,2.0,7.0,95,0.00,,,0.01,Weather View 32 v70,2013-01-26 03:08:00,
2013-01-25 21:13:00,62.5,61.3,30.00,SSW,202,2.0,7.0,96,0.00,,,0.01,Weather View 32 v70,2013-01-26 03:13:00,
2013-01-25 21:18:00,62.4,61.2,30.00,SSW,202,2.0,7.0,96,0.00,,,0.01,Weather View 32 v70,2013-01-26 03:18:00,
2013-01-25 21:23:00,62.2,61.0,30.01,SSW,202,1.0,7.0,96,0.00,,,0.01,Weather View 32 v70,2013-01-26 03:23:00,
2013-01-25 21:28:00,62.1,60.9,30.01,SSW,202,1.0,7.0,96,0.00,,,0.01,Weather View 32 v70,2013-01-26 03:28:00,
2013-01-25 21:33:00,62.0,60.8,30.01,SSW,202,2.0,6.0,96,0.00,,,0.01,Weather View 32 v70,2013-01-26 03:33:00,
2013-01-25 21:38:00,62.1,60.9,30.01,SSW,202,2.0,6.0,96,0.00,,,0.01,Weather View 32 v70,2013-01-26 03:38:00,
2013-01-25 21:43:00,62.1,60.9,30.01,SSW,202,2.0,4.0,96,0.00,,,0.01,Weather View 32 v70,2013-01-26 03:43:00,
2013-01-25 21:48:00,62.0,61.1,30.01,SSW,202,4.0,4.0,97,0.00,,,0.01,Weather View 32 v70,2013-01-26 03:48:00,
2013-01-25 21:53:00,61.9,61.0,30.01,SSW,202,2.0,4.0,97,0.00,,,0.01,Weather View 32 v70,2013-01-26 03:53:00,
2013-01-25 21:58:00,61.9,61.0,30.01,SSW,202,2.0,4.0,97,0.00,,,0.01,Weather View 32 v70,2013-01-26 03:58:00,
2013-01-25 22:03:00,61.9,61.0,30.01,SSW,202,2.0,4.0,97,0.00,,,0.01,Weather View 32 v70,2013-01-26 04:03:00,
2013-01-25 22:08:00,61.9,61.0,30.02,SW,225,1.0,4.0,97,0.00,,,0.01,Weather View 32 v70,2013-01-26 04:08:00,
2013-01-25 22:13:00,62.0,61.1,30.02,SW,225,2.0,4.0,97,0.00,,,0.01,Weather View 32 v70,2013-01-26 04:13:00,
2013-01-25 22:18:00,62.1,61.5,30.02,SW,225,1.0,4.0,98,0.00,,,0.01,Weather View 32 v70,2013-01-26 04:18:00,
2013-01-25 22:23:00,62.1,61.5,30.03,SW,225,2.0,4.0,98,0.00,,,0.01,Weather View 32 v70,2013-01-26 04:23:00,
2013-01-25 22:28:00,62.1,61.5,30.03,SW,225,2.0,4.0,98,0.00,,,0.01,Weather View 32 v70,2013-01-26 04:28:00,
2013-01-25 22:33:00,61.9,61.3,30.03,SSW,202,2.0,4.0,98,0.00,,,0.01,Weather View 32 v70,2013-01-26 04:33:00,
2013-01-25 22:38:00,61.9,61.3,30.03,SSW,202,2.0,4.0,98,0.00,,,0.01,Weather View 32 v70,2013-01-26 04:38:00,
2013-01-25 22:43:00,61.9,61.3,30.03,SSW,202,1.0,4.0,98,0.00,,,0.01,Weather View 32 v70,2013-01-26 04:43:00,
2013-01-25 22:49:00,61.9,61.3,30.03,SSW,202,2.0,4.0,98,0.00,,,0.01,Weather View 32 v70,2013-01-26 04:49:00,
2013-01-25 22:54:00,61.9,61.3,30.03,SSW,202,2.0,4.0,98,0.00,,,0.01,Weather View 32 v70,2013-01-26 04:54:00,
2013-01-25 22:59:00,61.9,61.3,30.03,SW,225,2.0,4.0,98,0.00,,,0.01,Weather View 32 v70,2013-01-26 04:59:00,
2013-01-25 23:00:00,61.6,61.0,30.03,SW,225,2.0,4.0,98,0.00,,,0.01,Weather View 32 v70,2013-01-26 05:00:00,
2013-01-25 23:01:00,61.3,60.7,30.03,SW,225,2.0,4.0,98,0.00,,,0.01,Weather View 32 v70,2013-01-26 05:01:00,
2013-01-25 23:03:00,61.7,61.1,30.03,SSW,202,2.0,3.0,98,0.00,,,0.01,Weather View 32 v70,2013-01-26 05:03:00,
2013-01-25 23:08:00,61.8,61.2,30.03,SSW,202,2.0,3.0,98,0.00,,,0.01,Weather View 32 v70,2013-01-26 05:08:00,
2013-01-25 23:13:00,61.9,61.3,30.03,SSW,202,2.0,4.0,98,0.00,,,0.01,Weather View 32 v70,2013-01-26 05:13:00,
2013-01-25 23:18:00,61.9,61.3,30.03,SSW,202,1.0,4.0,98,0.00,,,0.01,Weather View 32 v70,2013-01-26 05:18:00,
2013-01-25 23:23:00,61.9,61.3,30.02,SSW,202,2.0,4.0,98,0.00,,,0.01,Weather View 32 v70,2013-01-26 05:23:00,
2013-01-25 23:28:00,61.8,61.2,30.02,SSW,202,1.0,4.0,98,0.00,,,0.01,Weather View 32 v70,2013-01-26 05:28:00,
2013-01-25 23:33:00,61.7,61.1,30.02,SSW,202,2.0,4.0,98,0.00,,,0.01,Weather View 32 v70,2013-01-26 05:33:00,
2013-01-25 23:38:00,61.7,61.1,30.02,SSW,202,1.0,4.0,98,0.00,,,0.01,Weather View 32 v70,2013-01-26 05:38:00,
2013-01-25 23:43:00,61.7,61.1,30.02,SSW,202,1.0,4.0,98,0.00,,,0.01,Weather View 32 v70,2013-01-26 05:43:00,
2013-01-25 23:48:00,61.6,61.0,30.02,SSW,202,2.0,4.0,98,0.00,,,0.01,Weather View 32 v70,2013-01-26 05:48:00,
2013-01-25 23:53:00,61.7,61.1,30.02,SSW,202,0.0,4.0,98,0.00,,,0.01,Weather View 32 v70,2013-01-26 05:53:00,
2013-01-25 23:58:00,61.7,61.1,30.02,SSW,202,1.0,4.0,98,0.00,,,0.01,Weather View 32 v70,2013-01-26 05:58:00,